Flag for Netherlands Weather past 2 weeks in Tilburg, Netherlands

Now
63 °F

Fog.


Feels Like: 63 °F
Forecast: 59 / 76 °F
Wind: 6 mph from Southeast

Location: Gilze-Rijen

Current Time: Sep 17, 2014 at 10:37:02 AM

Latest Report: Sep 17, 2014 at 9:55 AM


Visibility: 5 mi

Pressure: 29.89 "Hg

Humidity: 88%

Dew point: 59 °F

Location of TilburgLocation

Historic Weather in Tilburg — Graph

°F

Tilburg temperature yesterday

Maximum temperature yesterday: 75 °F (at 3:55 PM)
Minimum temperature yesterday: 52 °F (at 6:55 AM)
Average temperature yesterday: 62 °F

Past Weeks' High & Low Weather Summary

 TemperatureHumidityPressure
High75 °F (Sep 16, 3:55 PM)100% (Sep 2, 11:25 PM)30.27 "Hg (Sep 2, 11:25 PM)
Low45 °F (Sep 11, 3:59 AM)47% (Sep 15, 3:25 PM)29.89 "Hg (Sep 6, 4:25 AM)
Average61 °F83%30.08 "Hg
* Reported Sep 2 9:25 AM — Sep 17 9:25 AM, Tilburg, Weather by CustomWeather, © 2014

Note: Actual official high and low records may vary slightly from our data, if they occured in-between our weather recording intervals... More about our weather records

Advertising

Tilburg weather history for previous 24 hours

 ConditionsComfort  
Time TempWeatherWind HumidityBarometerVisibility
9:25 AM
Sep 17
61 °FFog.5 mph88%29.89 "Hg4 mi
8:55 AM57 °FFog.3 mph100%29.89 "Hg3 mi
8:25 AM54 °FFog.2 mph100%29.89 "Hg2 mi
7:55 AM52 °FFog.2 mph100%29.89 "Hg2 mi
7:25 AM50 °FFog.3 mph100%29.89 "Hg1 mi
6:55 AM52 °FFog.2 mph100%29.89 "Hg1 mi
6:25 AM50 °FFog.2 mph100%29.89 "Hg1 mi
5:55 AM52 °FFog.2 mph100%29.89 "Hg2 mi
5:25 AM52 °FFog.2 mph100%29.89 "Hg2 mi
4:59 AM52 °FFog.1 mph100%29.92 "Hg2 mi
4:25 AM54 °FFog.1 mph100%29.92 "Hg2 mi
3:59 AM54 °FFog.1 mph100%29.92 "Hg4 mi
3:25 AM54 °FFog.1 mph100%29.92 "Hg2 mi
2:55 AM55 °FFog.3 mph100%29.92 "Hg2 mi
2:25 AM55 °FFog.2 mph100%29.92 "Hg2 mi
1:55 AM55 °FFog.2 mph100%29.92 "Hg1 mi
1:25 AM57 °FFog.1 mph100%29.92 "Hg2 mi
12:55 AM55 °FFog.1 mph100%29.92 "Hg2 mi
12:25 AM57 °FFog.1 mph100%29.92 "Hg1 mi
11:55 PM
Sep 16
57 °FFog.1 mph100%29.92 "Hg2 mi
11:25 PM57 °FFog.No wind100%29.92 "Hg2 mi
10:56 PM59 °FFog.No wind100%29.95 "Hg2 mi
10:55 PM59 °FFog.No wind100%29.95 "Hg3 mi
10:25 PM61 °FFog.No wind94%29.92 "Hg4 mi
10:04 PM61 °FFog.No wind94%29.92 "Hg3 mi
9:55 PM61 °FFog.No wind94%29.92 "Hg3 mi
9:25 PM61 °FFog.No wind94%29.92 "Hg4 mi
8:55 PM63 °FMild.No wind94%29.95 "HgN/A
8:25 PM63 °FFog.No wind88%29.92 "Hg5 mi
8:04 PM63 °FFog.1 mph88%29.92 "Hg4 mi
7:55 PM64 °FMild.1 mph83%29.92 "HgN/A
7:25 PM70 °FMild.2 mph78%29.92 "HgN/A
6:55 PM73 °FMild.1 mph69%29.92 "HgN/A
6:25 PM73 °FPassing clouds.3 mph61%29.92 "HgN/A
5:55 PM73 °FMild.2 mph61%29.92 "HgN/A
5:25 PM73 °FPassing clouds.2 mph61%29.92 "HgN/A
4:55 PM73 °FScattered clouds.5 mph61%29.92 "HgN/A
4:25 PM75 °FPassing clouds.5 mph57%29.95 "HgN/A
3:55 PM75 °FScattered clouds.5 mph57%29.95 "HgN/A
3:25 PM73 °FBroken clouds.3 mph61%29.95 "HgN/A
2:55 PM73 °FOvercast.5 mph65%29.95 "HgN/A
2:25 PM73 °FMore clouds than sun.3 mph69%29.95 "HgN/A
1:55 PM73 °FPartly sunny.5 mph69%29.98 "HgN/A
1:25 PM72 °FOvercast.3 mph69%29.98 "HgN/A
12:55 PM72 °FOvercast.1 mph73%29.98 "HgN/A
12:25 PM70 °FOvercast.3 mph78%29.98 "HgN/A
11:58 AM68 °FOvercast.3 mph78%29.98 "HgN/A
11:55 AM68 °FOvercast.3 mph78%29.98 "HgN/A
11:25 AM68 °FFog.3 mph78%30.01 "Hg6 mi
10:55 AM66 °FFog.5 mph83%30.01 "Hg5 mi
10:25 AM64 °FFog.6 mph88%29.98 "Hg4 mi
Weather by CustomWeather, © 2014

See weather overviewHow to use our weather pages